Location: Ferchesar
(52.6477°N, 12.4298°E)
Time: 10:09:11
(UTC+01:00)

S-56A Canister/Altair - Pass Details

Date: 10 December 2021
Orbit: 633 x 2499 km, 38.9° (Epoch: 19 January)

Event Time Altitude Azimuth Distance (km) Brightness Sun altitude
Rises 03:05:22 0° 266° (W) 4,608 - -44.5°
Reaches altitude 10° 03:10:16 10° 247° (WSW) 3,206 - -43.8°
Maximum altitude 03:14:19 15° 215° (SW) 2,492 - -43.2°
Drops below altitude 10° 03:17:42 10° 181° (S) 2,586 - -42.7°
Sets 03:21:00 0° 157° (SSE) 3,279 - -42.3°
